Location: Newark
(43.0000°N, 1.6781°W)
Time: 01:55:59
(UTC+00:00)

X-37B - Pass Details

Date: 14 December 2021
Orbit: 334 x 337 km, 45.0° (Epoch: 11 January)

Event Time Altitude Azimuth Distance (km) Brightness Sun altitude
Rises 17:58:35 0° 282° (WNW) 2,105 5.4 -15.1°
Reaches altitude 10° 18:00:36 10° 286° (WNW) 1,268 4.0 -15.4°
Maximum altitude 18:03:24 60° 7° (N) 389 0.4 -15.9°
Enters shadow 18:03:48 52° 49° (NE) 423 0.4 -16.0°
